Tracking 30995 objects as of 7-Jul-2025
HD Live streaming from Space Station
objects crossing your sky now

STARLINK-32901

Track STARLINK-32901 now!
10-day predictions
STARLINK-32901 is classified as:


NORAD ID: 62895
Int'l Code: 2025-024S
Perigee: 489.4 km
Apogee: 491.0 km
Inclination: 43.0 °
Period: 94.3 minutes
Semi major axis: 6861 km
RCS: Unknown
Launch date: February 4, 2025
Source: United States (US)
Launch site: AIR FORCE EASTERN TEST RANGE (AFETR)
Your satellite tracking list
COSMOS 1275 DEB
Track 1 satellite(s)




NASA's NSSDC Master Catalog

Two Line Element Set (TLE):
1 62895U 25024S   25187.22499155  .00018752  00000-0  68906-3 0  9998
2 62895  42.9991 277.1516 0001151 275.7616  84.3105 15.27587033 24498
Source of the keplerian elements: AFSPC